Location: Cardiff
(53.7833°N, 113.6000°W)
Time: 18:00:09
(UTC+00:00)

NOAA 15 - Pass Details

Date: 10 December 2023
Orbit: 796 x 810 km, 98.6° (Epoch: 21 February)

Event Time Altitude Azimuth Distance (km) Brightness Sun altitude
Rises 03:52:19 0° 215° (SW) 3,318 8.0 -39.5°
Reaches altitude 10° 03:55:37 10° 237° (WSW) 2,391 7.4 -40.0°
Maximum altitude 03:58:47 16° 274° (W) 2,005 7.2 -40.4°
Drops below altitude 10° 04:01:59 10° 312° (NW) 2,396 7.6 -40.9°
Sets 04:05:18 0° 334° (NNW) 3,330 8.3 -41.3°
